Theta_e
314 314 314 314 314 315 315 315 314 314 314 313 312 312 313 311 307 299 296 302 303 310 305 295 293 292 292 289 288 287 278 276 277 277 280 285 284 288 289 286 287 289 288 288 291
314 314 314 314 314 315 315 314 313 313 312 312 312 311 312 311 297 294 304 309 309 308 295 292 289 290 287 287 287 283 277 278 281 282 282 284 284 285 285 285 285 285 288 288 289
314 313 314 314 314 314 314 313 313 312 312 312 311 311 310 306 289 291 307 308 308 302 296 295 292 290 285 286 285 284 279 282 283 285 286 284 284 286 284 282 283 283 283 285 286
314 313 313 313 313 314 314 313 313 311 312 312 311 311 310 299 281 293 307 306 305 297 294 291 289 285 283 282 285 280 283 284 285 286 285 283 285 284 284 281 284 283 284 284 283
313 313 313 313 313 314 314 313 312 312 311 311 311 312 299 287 287 298 303 301 296 295 290 289 286 285 281 282 284 281 282 285 285 285 284 285 283 283 279 282 283 283 283 282 283
313 313 313 313 313 313 313 313 313 312 310 311 312 310 290 282 295 295 295 295 294 292 290 289 287 287 284 283 282 284 283 283 284 285 284 282 281 282 281 281 281 280 280 282 283
313 313 313 312 313 313 313 313 313 312 309 310 312 298 287 286 293 294 295 292 294 292 290 291 291 286 286 282 286 285 280 282 281 282 282 282 279 279 279 280 278 278 278 280 282
314 313 313 312 313 313 313 311 311 311 309 309 309 291 284 293 292 293 294 292 294 294 293 293 293 289 286 286 282 279 279 274 280 282 283 281 274 279 279 278 276 277 277 278 280
315 314 312 312 312 312 312 308 310 309 308 306 292 287 282 298 290 292 292 290 291 292 293 295 291 284 283 279 275 277 272 274 276 281 280 279 275 278 279 277 275 276 276 277 278
315 314 313 312 312 312 309 306 305 302 299 294 291 283 287 285 289 291 292 292 289 288 288 286 282 280 279 277 270 273 273 274 274 278 278 277 276 277 278 276 275 275 275 276 276
314 314 312 312 311 310 297 291 288 287 289 284 284 284 286 289 291 289 291 289 288 285 280 282 278 276 277 279 279 277 275 273 276 279 276 275 274 276 277 275 274 275 274 274 275
314 313 312 311 310 304 293 289 289 289 284 288 287 287 289 289 285 288 291 284 283 279 280 278 276 279 281 281 279 278 275 274 276 278 276 274 274 274 276 274 275 274 273 274 274
314 313 311 310 306 296 290 290 295 294 284 285 287 286 286 288 284 284 287 283 280 279 278 276 278 281 281 279 277 277 275 274 274 276 276 274 270 270 275 276 276 275 274 274 273
314 313 311 309 296 293 288 293 296 294 280 281 283 286 288 287 282 288 288 284 281 279 278 278 281 280 278 278 277 268 278 276 273 268 267 271 264 270 272 273 273 272 272 272 273
314 312 309 304 293 290 292 295 296 291 275 282 283 290 288 284 283 284 288 284 279 279 277 278 277 278 273 278 278 272 277 274 273 268 267 271 265 268 270 270 270 270 270 271 273
313 311 307 299 296 294 297 297 293 285 276 280 283 281 282 283 283 284 283 285 283 280 280 279 280 279 278 280 279 278 273 274 270 269 259 266 268 268 266 265 267 268 269 270 272
314 310 304 300 294 296 297 294 285 279 283 280 279 282 281 280 281 281 279 277 275 271 270 276 277 279 279 275 278 273 267 261 262 260 261 270 268 269 266 267 266 265 266 269 272
313 307 301 299 298 298 295 289 280 283 280 281 281 281 279 280 280 279 277 275 277 273 267 266 269 274 278 272 268 272 265 262 259 258 262 270 265 270 267 266 263 265 264 271 271
307 300 299 297 298 297 292 282 284 282 281 280 280 278 278 279 278 277 275 275 276 274 269 264 268 278 277 277 274 272 267 272 260 262 261 266 271 269 271 269 266 263 268 268 269
300 298 295 298 298 296 286 286 282 282 282 282 280 279 276 276 276 275 275 277 277 278 275 270 267 277 277 277 277 274 275 265 263 257 256 263 267 269 267 266 267 263 266 268 269
299 291 294 296 296 290 284 283 282 283 284 281 280 278 278 276 276 273 276 278 277 275 276 271 269 272 274 264 266 270 268 270 267 265 259 259 264 267 266 265 264 264 268 267 269
295 286 294 294 285 284 283 284 284 281 284 282 282 280 280 278 276 275 276 276 279 278 274 275 266 264 266 266 272 271 263 264 262 261 264 264 263 264 266 264 266 267 268 269 270
288 286 295 294 283 281 283 281 282 280 281 282 281 281 278 276 275 274 277 279 280 278 275 275 271 265 269 271 273 266 269 268 265 265 258 260 267 263 263 264 266 265 267 268 270
291 285 286 287 286 283 280 281 281 283 282 283 281 281 277 275 275 273 276 280 281 280 283 279 269 268 268 268 261 262 265 269 267 257 259 261 265 268 265 261 263 264 266 267 266
291 286 286 281 282 283 283 283 280 282 282 283 281 280 278 274 272 272 276 278 280 283 280 275 266 264 264 258 260 262 266 266 265 261 264 262 259 268 264 259 258 262 264 264 264
288 286 285 284 284 283 284 283 283 283 281 279 279 280 279 276 278 274 276 277 277 279 277 274 266 267 267 259 259 266 268 267 265 259 261 255 261 261 259 255 257 259 261 261 261
291 291 290 286 284 283 283 284 284 283 283 282 282 279 277 279 280 279 279 279 279 275 274 271 269 264 264 263 265 263 262 262 259 258 265 265 268 254 262 263 258 258 258 259 261
Wind_Speed
12 12 13 14 14 15 16 15 13 11 9 7 5 4 5 8 7 4 7 5 7 14 8 5 5 5 4 5 5 2 5 2 5 4 4 3 5 3 2 4 4 5 4 10 16
12 14 14 14 14 14 15 14 12 9 8 7 5 3 3 3 3 8 3 10 13 12 5 6 6 6 5 3 4 4 3 6 4 3 3 3 2 5 4 5 5 5 11 13 13
12 13 14 15 14 14 15 13 11 8 7 6 5 3 2 1 3 3 7 15 11 7 2 2 3 2 5 3 4 1 4 1 2 3 2 3 3 3 3 3 0 8 14 13 12
12 13 13 15 15 14 14 13 10 7 7 6 4 4 2 1 0 3 10 12 8 5 3 3 4 4 4 3 2 2 2 3 4 3 3 5 3 4 2 3 4 6 9 9 12
12 12 14 14 15 15 15 13 10 7 6 5 3 4 0 5 0 4 9 8 6 4 4 2 5 3 5 2 2 2 3 4 7 9 6 3 5 5 2 6 4 6 10 12 12
11 13 14 15 16 16 16 14 11 8 5 5 3 1 1 3 1 4 6 5 5 4 5 5 3 2 5 3 2 2 4 8 7 4 2 4 5 2 1 7 7 10 11 13 13
11 12 15 15 16 17 17 15 13 7 4 3 4 2 5 4 4 3 6 2 1 2 3 2 2 5 3 2 1 2 5 6 3 2 2 5 3 1 4 6 9 10 10 12 13
11 11 13 15 16 17 17 16 11 3 3 2 2 2 3 2 2 5 4 3 3 3 4 3 4 5 3 2 5 4 1 5 2 3 1 4 7 3 2 4 7 9 9 12 14
10 10 13 15 16 17 17 13 4 1 2 2 2 4 1 1 2 1 3 2 1 2 4 3 4 3 3 3 3 4 7 6 8 4 0 2 8 3 1 3 6 7 9 11 14
9 11 13 15 16 17 16 3 3 3 3 1 2 4 0 2 1 2 2 3 4 2 3 5 4 2 3 6 3 10 8 5 13 2 0 8 16 4 1 4 5 6 9 11 13
8 11 13 16 17 14 7 3 5 2 5 2 3 4 2 1 0 5 2 2 2 7 2 3 4 2 1 4 6 6 10 17 16 9 3 8 8 7 2 2 8 10 12 12 13
8 10 13 15 16 9 4 6 1 1 5 1 1 3 1 1 3 5 2 2 2 1 1 4 2 2 1 6 5 9 16 11 8 2 5 9 13 5 3 2 3 7 11 13 15
6 8 12 15 6 6 4 2 1 2 2 1 2 2 1 2 3 4 2 2 3 1 1 4 1 1 1 4 4 9 7 6 14 10 7 5 8 1 2 4 6 9 10 12 13
5 6 9 17 5 2 3 3 1 1 4 2 2 1 2 2 2 2 2 3 2 4 3 4 1 2 3 3 4 7 6 11 14 3 3 2 6 2 2 3 7 12 12 13 15
5 3 5 7 1 2 3 1 1 0 5 2 1 2 2 2 3 1 1 1 3 2 4 2 1 2 2 2 4 12 16 8 4 3 3 2 1 5 2 3 12 14 14 14 14
8 3 1 2 2 1 2 1 1 6 8 2 2 2 2 3 2 3 1 5 2 2 2 4 1 3 3 4 3 11 4 1 4 2 3 4 2 5 2 4 7 12 13 14 15
10 7 3 2 1 2 2 1 5 4 2 2 2 1 1 2 2 4 3 5 3 5 6 6 2 2 3 6 2 7 5 5 7 7 5 2 3 8 4 5 3 10 13 12 14
11 10 5 2 1 2 2 4 3 2 4 2 1 2 2 1 1 2 2 1 2 2 4 4 8 2 3 4 4 4 3 5 6 4 8 4 6 4 5 5 5 6 9 10 12
16 2 3 3 4 2 3 2 6 4 0 2 1 2 2 2 3 2 1 4 4 5 6 4 6 2 3 2 5 3 4 3 3 2 3 4 5 3 4 5 5 8 10 9 11
4 3 4 4 4 2 3 4 4 1 2 2 1 3 3 3 1 3 5 4 5 2 2 4 4 2 3 3 1 1 4 1 3 5 7 7 6 4 3 9 12 11 10 9 10
3 4 3 5 2 3 3 6 3 1 2 2 2 2 4 3 4 2 3 1 3 3 3 5 4 3 4 1 5 1 1 1 3 4 3 6 8 5 4 4 9 10 10 8 9
2 2 3 3 2 1 2 2 2 2 1 1 0 2 3 3 4 3 4 2 6 7 6 5 5 4 7 4 2 3 5 3 5 5 3 2 11 4 5 4 3 10 11 8 8
3 3 2 3 2 2 1 4 2 1 3 1 2 2 2 3 2 3 2 1 5 6 6 6 1 5 6 3 1 2 4 3 2 4 5 3 9 1 1 2 5 6 9 9 8
2 2 1 1 1 1 2 3 4 1 1 2 1 4 3 3 2 3 3 3 4 2 5 5 2 7 8 8 4 2 4 5 3 3 4 8 11 7 7 6 6 6 8 6 7
2 1 1 2 4 4 4 1 2 3 1 3 2 5 6 4 2 5 2 3 1 5 2 3 4 2 6 3 3 4 7 6 9 6 6 4 6 12 7 5 3 3 4 5 6
3 2 1 0 1 5 5 4 6 2 6 3 5 1 7 5 5 5 6 5 5 2 4 1 2 1 5 1 2 6 9 8 6 4 8 2 9 5 5 4 2 2 4 4 3
0 1 1 4 3 3 4 4 3 5 5 2 3 1 2 9 3 2 3 3 6 8 6 4 4 2 7 2 3 7 10 8 3 4 6 3 8 1 5 7 3 4 2 3 4
Wind_Direction
5 4 2 6 6 4 0 2 4 5 8 13 23 39 62 97 54 39 47 358 355 349 347 334 25 8 36 60 47 117 69 208 245 169 272 4 10 299 294 269 320 313 346 351 338
3 359 359 360 3 0 358 359 7 7 7 10 15 31 74 31 78 56 348 343 339 357 8 25 17 3 49 36 20 81 129 218 208 207 253 306 322 292 312 294 284 323 331 351 356
2 360 353 352 359 355 355 360 4 1 358 8 11 2 359 45 72 326 336 349 347 21 80 50 32 56 71 35 6 115 201 188 277 250 184 251 281 230 255 258 312 306 326 339 354
356 353 354 349 350 351 353 355 358 350 348 358 353 328 331 100 224 279 349 360 15 36 63 51 53 64 81 76 352 343 283 217 267 271 313 284 259 259 235 318 336 334 332 331 346
349 350 349 345 345 346 347 348 344 342 331 333 340 322 191 47 118 1 356 22 37 49 51 87 59 104 106 121 30 150 282 308 286 296 258 257 243 235 92 322 336 346 357 346 335
348 344 346 342 342 341 341 337 328 325 316 309 326 337 163 81 177 29 356 55 49 46 19 41 108 112 101 83 157 235 272 274 278 274 268 342 281 248 211 332 359 1 355 345 336
346 345 340 339 340 337 337 331 317 298 272 290 328 93 64 170 106 45 29 75 20 94 82 24 119 74 131 351 314 274 306 315 247 321 291 341 296 232 324 351 2 356 348 345 340
337 339 338 337 336 337 337 333 321 273 222 258 19 86 126 312 175 45 3 66 35 47 107 138 93 98 75 344 21 341 63 349 255 51 12 74 270 224 326 22 356 356 347 342 338
328 333 335 335 335 336 336 336 5 150 211 20 81 104 161 115 55 52 38 95 77 43 38 78 64 91 34 31 27 13 280 278 307 177 316 185 274 192 162 37 2 348 344 340 334
327 331 335 335 333 334 334 325 20 77 40 30 59 58 170 203 320 54 30 73 93 99 37 43 48 75 58 41 321 298 307 261 283 264 136 260 257 218 260 58 355 350 341 336 336
322 330 336 334 335 342 3 38 24 316 45 286 137 116 140 337 143 26 6 94 47 55 88 2 62 310 304 198 230 261 264 272 276 270 274 254 265 260 239 31 1 2 343 334 339
316 328 334 333 337 2 49 68 94 212 310 134 108 85 108 169 129 5 91 106 65 99 1 16 212 189 162 255 272 281 281 279 278 222 293 278 276 218 196 121 33 5 338 335 336
308 323 334 331 342 37 69 61 263 155 250 242 197 152 158 141 127 345 56 105 92 138 91 180 191 76 117 282 332 303 244 300 291 320 273 283 288 312 214 163 23 13 346 340 339
287 324 346 330 51 320 51 312 168 174 58 211 203 187 72 96 81 344 5 127 49 224 199 229 346 29 329 281 86 308 201 314 300 20 291 98 286 270 172 263 14 351 352 344 340
251 307 11 28 208 41 298 249 173 305 347 95 155 142 69 140 133 52 4 36 154 221 103 254 9 42 336 215 123 248 326 301 287 166 27 199 39 266 26 334 334 339 343 340 340
216 194 44 59 68 235 260 247 62 38 257 142 122 177 136 28 46 320 80 40 93 153 260 268 77 135 243 308 179 309 349 265 38 95 17 247 132 271 213 224 308 327 336 335 339
194 157 104 93 328 274 266 297 38 166 19 234 212 104 69 358 61 36 32 16 79 49 356 337 138 91 36 346 53 9 358 339 355 7 238 243 238 259 199 220 238 317 323 323 343
153 119 44 51 311 312 306 55 164 230 241 16 109 93 228 11 75 34 116 133 88 81 90 82 326 58 0 131 192 343 105 134 269 315 295 298 241 282 201 221 237 283 284 333 346
119 81 77 1 328 359 79 114 213 206 106 221 264 81 273 235 162 128 305 187 163 174 133 105 285 123 92 107 114 297 43 199 104 228 304 248 261 160 228 270 307 326 336 338 343
103 98 43 337 330 37 92 239 231 356 67 34 179 148 235 238 168 153 197 184 160 198 145 198 349 148 132 58 17 138 155 69 37 13 310 297 286 259 320 337 328 329 330 336 339
69 88 9 330 354 67 223 216 271 186 127 183 229 243 227 239 211 196 209 289 152 136 91 131 122 261 72 179 180 338 333 98 125 148 204 305 279 181 195 260 304 314 333 329 338
95 98 344 311 82 320 215 211 299 222 168 207 340 195 211 188 210 232 215 246 150 148 158 182 139 269 220 244 215 138 187 158 128 251 228 235 276 186 172 233 293 332 334 340 355
87 98 22 3 193 209 251 301 280 236 216 116 251 70 65 234 286 216 190 37 141 163 169 186 223 355 349 9 76 199 194 195 141 59 216 156 276 168 105 44 28 1 334 335 359
124 131 105 21 354 159 192 223 240 360 71 145 121 102 80 268 303 241 221 180 188 151 134 117 152 178 197 213 137 294 214 187 179 123 198 227 289 301 341 9 353 15 335 335 355
70 240 168 205 223 187 173 237 218 231 131 339 222 203 181 246 257 230 189 122 215 189 116 113 220 158 262 190 139 224 237 195 202 225 176 269 246 299 308 296 278 297 334 359 1
139 153 118 142 128 158 184 230 216 193 162 206 212 190 193 235 213 226 152 192 193 151 164 76 267 185 282 94 194 266 249 224 227 242 274 300 282 220 289 274 55 285 15 333 21
29 43 154 144 166 172 211 227 219 151 178 331 174 164 262 252 210 265 99 66 153 154 171 139 139 75 274 319 318 325 220 183 204 227 163 174 228 21 335 348 345 330 346 316 320